User: anonymous   Login
Location: Pacheco
(37.9835°N, 122.0752°W)
Time: 18:35:56
(UTC+00:00)
Language:

Cosmos 1766 - Orbit

View from above orbital plane
View from above orbital plane
View from above satellite
View from above satellite

Ground track
Ground track

The orbit data is extracted from the following two-line orbital elements,

1 16881U 86055A   24171.65059807  .00006968  00000-0  28688-3 0  9997
2 16881  82.5008  29.4264 0010518 269.9358  90.0674 15.23901913 47172
Epoch (UTC): 19 June 2024 15:36:51
Eccentricity: 0.0010518
inclination: 82.5008°
perigee height: 487 km
apogee height: 501 km
right ascension of ascending node: 29.4264°
argument of perigee: 269.9358°
revolutions per day: 15.23901913
mean anomaly at epoch: 90.0674°
orbit number at epoch: 4717

The dashed part of the orbit path shows where the satellite is in the earth's shadow,  

DLR